EW2984 Weather Reports


Display with metric or nautical units.
time (UTC)temp
F
wind
direction
speed
MPH
gust
MPH
rain 1hr
in
rain 24hr
in
rain mn
in
humidity
%
barometer
mb
20260906121524 64 228 0.0 0.0 0.00 0.00 0.00 93 1015.6
20260906120021 63 228 0.0 1.0 0.00 0.00 0.00 94 1015.4
20260906114520 62 228 0.0 0.0 0.00 0.00 0.00 96 1015.4
20260906113021 61 175 0.0 0.0 0.00 0.00 0.00 97 1015.1
20260906111544 60 243 0.0 4.0 0.00 0.00 0.00 97 1015.0
20260906110014 59 110 0.0 0.0 0.00 0.00 0.00 97 1014.8
20260906104521 59 110 0.0 0.0 0.00 0.00 0.00 97 1014.7
20260906103012 59 110 0.0 0.0 0.00 0.00 0.00 97 1014.5
20260906101510 59 110 0.0 0.0 0.00 0.00 0.00 97 1014.4
20260906100010 59 110 0.0 0.0 0.00 0.00 0.00 96 1014.1
20260906094515 59 110 0.0 0.0 0.00 0.00 0.00 96 1014.0
20260906093004 60 110 0.0 0.0 0.00 0.00 0.00 96 1013.9
20260906091505 60 110 0.0 0.0 0.00 0.00 0.00 95 1013.7
20260906090100 60 110 0.0 0.0 0.00 0.00 0.00 95 1013.6
20260906084559 60 110 0.0 0.0 0.00 0.00 0.00 95 1013.5
20260906083100 61 110 0.0 0.0 0.00 0.00 0.00 95 1013.3
20260906081559 61 110 0.0 0.0 0.00 0.00 0.00 95 1013.2
20260906080107 61 110 0.0 0.0 0.00 0.00 0.00 94 1013.1
20260906074556 61 110 0.0 0.0 0.00 0.00 0.00 94 1013.1
20260906073054 62 110 0.0 0.0 0.00 0.00 0.00 93 1013.0
20260906071600 62 110 0.0 0.0 0.00 0.00 0.00 93 1013.0
20260906070051 62 110 0.0 0.0 0.00 0.00 0.00 93 1013.0
20260906064551 62 110 0.0 0.0 0.00 0.00 0.00 93 1013.0
20260906063055 62 110 0.0 0.0 0.00 0.00 0.00 92 1013.0
20260906061553 62 110 0.0 0.0 0.00 0.00 0.00 92 1013.0
20260906060046 62 110 0.0 0.0 0.00 0.00 0.00 90 1013.0
20260906054545 63 110 0.0 0.0 0.00 0.00 0.00 88 1013.2
20260906053050 63 110 0.0 0.0 0.00 0.00 0.00 87 1013.3
20260906051540 63 110 0.0 0.0 0.00 0.00 0.00 87 1013.4
20260906050042 64 110 0.0 0.0 0.00 0.00 0.00 85 1013.4
20260906044537 64 110 0.0 0.0 0.00 0.00 0.00 85 1013.4
20260906043037 64 110 0.0 0.0 0.00 0.00 0.00 85 1013.5
20260906041534 64 110 0.0 0.0 0.00 0.00 0.00 84 1013.5
20260906040037 64 110 0.0 0.0 0.00 0.00 0.00 84 1013.5
20260906034539 65 110 0.0 0.0 0.00 0.00 0.00 84 1013.4
20260906033030 65 110 0.0 0.0 0.00 0.00 0.00 82 1013.3
20260906031527 66 110 0.0 0.0 0.00 0.00 0.00 80 1013.4
20260906030024 66 110 0.0 0.0 0.00 0.00 0.00 80 1013.2
20260906024522 66 110 0.0 0.0 0.00 0.00 0.00 79 1013.1
20260906023022 66 110 0.0 0.0 0.00 0.00 0.00 78 1013.0
20260906021521 67 110 0.0 0.0 0.00 0.00 0.00 79 1012.9
20260906020018 67 110 0.0 0.0 0.00 0.00 0.00 78 1012.7
20260906014526 67 110 0.0 0.0 0.00 0.00 0.00 77 1012.6
20260906013016 67 110 0.0 0.0 0.00 0.00 0.00 76 1012.4
20260906011531 68 110 0.0 0.0 0.00 0.00 0.00 76 1012.3
20260906010013 68 110 0.0 0.0 0.00 0.00 0.00 76 1012.3
20260906004514 69 110 0.0 0.0 0.00 0.00 0.00 75 1012.1
20260906003010 69 110 0.0 0.0 0.00 0.00 0.00 75 1012.0
20260906001508 70 110 0.0 0.0 0.00 0.00 0.00 73 1011.8
20260906000006 71 110 0.0 0.0 0.00 0.00 0.00 72 1011.7
20260905234504 71 110 0.0 0.0 0.00 0.00 0.00 71 1011.7
20260905233006 73 110 0.0 1.0 0.00 0.00 0.00 67 1011.5
20260905231504 74 109 0.0 0.0 0.00 0.00 0.00 65 1011.4
20260905230003 74 121 0.0 1.0 0.00 0.00 0.00 63 1011.1
20260905224502 75 90 0.0 0.0 0.00 0.00 0.00 62 1011.2
20260905223002 77 107 0.0 2.0 0.00 0.00 0.00 60 1011.2
20260905221501 77 71 0.0 7.0 0.00 0.00 0.00 59 1011.2
20260905220001 77 30 0.0 6.0 0.00 0.00 0.00 58 1011.1
20260905214600 77 55 0.0 4.0 0.00 0.00 0.00 60 1010.9
20260905213104 77 151 0.0 2.0 0.00 0.00 0.00 64 1010.7
20260905211600 77 98 0.0 2.0 0.00 0.00 0.00 62 1010.8
20260905210059 78 217 0.0 3.0 0.00 0.00 0.00 62 1010.8
20260905204603 80 230 0.0 3.0 0.00 0.00 0.00 60 1010.8
20260905203100 79 92 0.0 2.0 0.00 0.00 0.00 62 1010.7
20260905201557 78 121 0.0 2.0 0.00 0.00 0.00 63 1010.8
20260905200104 77 108 0.0 2.0 0.00 0.00 0.00 63 1011.0
20260905194555 79 106 0.0 3.0 0.00 0.00 0.00 59 1010.9
20260905193107 80 217 0.0 1.0 0.00 0.00 0.00 60 1011.0
20260905191558 80 328 0.0 3.0 0.00 0.00 0.00 59 1011.0
20260905190058 79 343 0.0 2.0 0.00 0.00 0.00 60 1011.1
20260905184551 81 138 0.0 2.0 0.00 0.00 0.00 60 1011.1
20260905183047 79 141 0.0 3.0 0.00 0.00 0.00 62 1011.3
20260905181548 78 167 0.0 2.0 0.00 0.00 0.00 62 1011.4
20260905180046 79 123 0.0 1.0 0.00 0.00 0.00 64 1011.4
20260905174542 77 244 0.0 1.0 0.00 0.00 0.00 70 1011.7
20260905173042 77 53 0.0 2.0 0.00 0.00 0.00 68 1011.8
20260905171541 77 340 0.0 2.0 0.00 0.00 0.00 68 1011.8
20260905170046 77 125 0.0 1.0 0.00 0.00 0.00 70 1011.9
20260905164537 77 200 0.0 3.0 0.00 0.00 0.00 74 1012.1
20260905163035 76 298 0.0 2.0 0.00 0.00 0.00 76 1012.2
20260905161534 76 129 0.0 1.0 0.00 0.00 0.00 72 1012.3
20260905160042 76 37 0.0 1.0 0.00 0.00 0.00 74 1012.6
20260905154531 76 218 0.0 1.0 0.00 0.00 0.00 78 1012.7
20260905153036 75 214 0.0 1.0 0.00 0.00 0.00 77 1012.8
20260905151527 74 194 0.0 2.0 0.00 0.00 0.00 77 1012.9
20260905150026 74 113 0.0 1.0 0.00 0.00 0.00 75 1012.9
20260905144532 74 38 0.0 1.0 0.00 0.00 0.00 76 1012.7
20260905143025 73 269 0.0 2.0 0.00 0.00 0.00 77 1012.4
20260905141521 73 231 0.0 1.0 0.00 0.00 0.00 78 1012.4
20260905140018 72 99 0.0 1.0 0.00 0.00 0.00 80 1012.2
20260905134520 71 103 0.0 1.0 0.00 0.00 0.00 82 1012.4
20260905133017 71 128 0.0 1.0 0.00 0.00 0.00 84 1012.7
20260905131527 71 316 0.0 1.0 0.00 0.00 0.00 85 1012.6
20260905130015 71 110 0.0 1.0 0.00 0.00 0.00 86 1012.1
20260905124512 71 111 0.0 1.0 0.00 0.00 0.00 87 1012.1
20260905123011 71 111 0.0 0.0 0.00 0.00 0.00 85 1012.1